Weather History for LIRA - March, 2014

Change the Weather History Date:

Saturday, March 1, 2014

  Actual Average Record
Temperature  
Mean Temperature 46 °F -  
Max Temperature 50 °F 59 °F 69 °F (2012)
Min Temperature 42 °F 41 °F 32 °F (2005)
Degree Days  
Heating Degree Days 19    
Moisture  
Dew Point 44 °F    
Average Humidity 91    
Maximum Humidity 100    
Minimum Humidity 76    
Precipitation  
Precipitation 0.35 in 0.09 in - ()
Sea Level Pressure  
Sea Level Pressure 29.46 in    
Wind  
Wind Speed 13 mph ()    
Max Wind Speed 28 mph    
Max Gust Speed 37 mph    
Visibility 4.3 miles    
Events Rain , Thunderstorm    
Averages and records for this station are not official NWS values.
T = Trace of Precipitation, MM = Missing Value Source: Averaged Metar Reports

Daily Weather History Graph

Daily Weather History Graph

Search for Another Location

Airport or City:

Trip Planner

Search our weather history database for the weather conditions in past years. The results will help you decide how hot, cold, wet, or windy it might be!

Date:

Astronomy

Mar. 01, 2014 Rise Set
Actual Time 6:44 AM CET 5:59 PM CET
Civil Twilight 6:17 AM CET 6:27 PM CET
Nautical Twilight 5:44 AM CET 6:59 PM CET
Astronomical Twilight 5:12 AM CET 7:32 PM CET
Moon 6:27 AM CET (3/1) 6:28 PM CET (3/1)
Length of Visible Light 12h 10m
Length of Day
11h 14m
New Moon, 0% of the Moon is Illuminated
Mar 1
New Moon
Mar 8
First Quarter
Mar 16
Full
Mar 24
Last Quarter
Mar 30
New

Hourly Weather History & Observations

Time (CET) Temp. Windchill Dew Point Humidity Pressure Visibility Wind Dir Wind Speed Gust Speed Precip Events Conditions
12:15 AM 48.2 °F - 46.4 °F 93% 29.68 in 5.0 mi SE 17.3 mph - N/A   Partly Cloudy
12:45 AM 50.0 °F - 46.4 °F 87% 29.65 in 5.0 mi SE 17.3 mph - N/A   Partly Cloudy
1:00 AM 49 °F - 47 °F 88% 29.68 in 5 mi SE 17.3 mph - -   Mist
1:15 AM 50.0 °F - 46.4 °F 87% 29.65 in 5.0 mi SE 17.3 mph - N/A   Partly Cloudy
1:45 AM 50.0 °F - 48.2 °F 94% 29.62 in 5.0 mi SE 20.7 mph 32.2 mph N/A   Partly Cloudy
2:15 AM 50.0 °F - 46.4 °F 87% 29.56 in 5.0 mi SE 18.4 mph 29.9 mph N/A   Partly Cloudy
2:45 AM 50.0 °F - 44.6 °F 82% 29.53 in 6.2 mi SE 19.6 mph - N/A   Scattered Clouds
3:15 AM 50.0 °F - 46.4 °F 87% 29.53 in 5.0 mi SE 19.6 mph 31.1 mph N/A Rain , Thunderstorm Light Thunderstorms and Rain
3:45 AM 48.2 °F - 44.6 °F 87% 29.50 in 3.7 mi SE 20.7 mph 36.8 mph N/A Rain , Thunderstorm Light Thunderstorms and Rain
4:00 AM 49 °F - 45 °F 82% 29.52 in 4 mi SE 20.7 mph - - Rain , Thunderstorm Thunderstorms and Rain
4:15 AM 50.0 °F - 46.4 °F 87% 29.47 in 4.3 mi ESE 13.8 mph - N/A Rain , Thunderstorm Light Thunderstorms and Rain
4:45 AM 48.2 °F - 46.4 °F 93% 29.47 in 2.5 mi SE 15.0 mph - N/A Rain , Thunderstorm Light Thunderstorms and Rain
5:15 AM 46.4 °F 39.0 °F 44.6 °F 93% 29.47 in 2.5 mi South 19.6 mph - N/A Rain , Thunderstorm Light Thunderstorms and Rain
5:45 AM 46.4 °F 38.3 °F 44.6 °F 93% 29.44 in 3.1 mi SE 23.0 mph 34.5 mph N/A Rain , Thunderstorm Light Thunderstorms and Rain
6:15 AM 44.6 °F 35.1 °F 44.6 °F 100% 29.44 in 1.9 mi SE 27.6 mph - N/A Rain , Thunderstorm Light Thunderstorms and Rain
6:45 AM 46.4 °F 40.4 °F 46.4 °F 100% 29.42 in 2.5 mi SE 13.8 mph - N/A Rain , Thunderstorm Light Thunderstorms and Rain
7:00 AM 46 °F - 46 °F 98% 29.44 in 2 mi SE 13.8 mph - - Rain , Thunderstorm Thunderstorms and Rain
7:15 AM 46.4 °F 39.5 °F 46.4 °F 100% 29.42 in 1.9 mi SSE 17.3 mph - N/A Rain , Thunderstorm Light Thunderstorms and Rain
7:45 AM 46.4 °F 41.1 °F 46.4 °F 100% 29.42 in 2.5 mi SSE 11.5 mph - N/A Rain Light Rain
8:15 AM 46.4 °F 40.4 °F 46.4 °F 100% 29.42 in 1.9 mi SSE 13.8 mph - N/A Rain Light Rain
8:45 AM 46.4 °F 41.9 °F 44.6 °F 93% 29.44 in 3.1 mi SSE 9.2 mph - N/A Rain Light Rain
9:15 AM 46.4 °F 41.9 °F 44.6 °F 93% 29.44 in 3.7 mi SSE 9.2 mph - N/A   Mostly Cloudy
9:45 AM 46.4 °F 40.4 °F 46.4 °F 100% 29.44 in 4.3 mi SSE 13.8 mph - N/A   Scattered Clouds
10:00 AM 47 °F - 46 °F 95% 29.46 in 4 mi SSE 13.8 mph - -   Mist
10:15 AM 48.2 °F - 46.4 °F 93% 29.44 in 3.7 mi SSE 13.8 mph - N/A Rain Light Rain
10:45 AM 48.2 °F - 46.4 °F 93% 29.44 in 3.7 mi South 11.5 mph - N/A Rain Light Rain
11:15 AM 46.4 °F 41.5 °F 44.6 °F 93% 29.44 in 3.7 mi SW 10.4 mph - N/A   Mostly Cloudy
11:45 AM 46.4 °F 42.9 °F 44.6 °F 93% 29.44 in 3.7 mi SSW 6.9 mph - N/A Rain Light Rain
12:15 PM 48.2 °F - 44.6 °F 87% 29.44 in 4.3 mi SSW 6.9 mph - N/A Rain Light Rain
12:45 PM 48.2 °F - 44.6 °F 87% 29.44 in 5.0 mi SW 4.6 mph - N/A   Mostly Cloudy
1:00 PM 48 °F - 44 °F 83% 29.47 in 5 mi SW 4.6 mph - - Rain Light Rain
1:15 PM 50.0 °F - 44.6 °F 82% 29.44 in 5.6 mi South 9.2 mph - N/A   Mostly Cloudy
1:45 PM 50.0 °F - 42.8 °F 76% 29.44 in 6.2 mi South 8.1 mph - N/A   Mostly Cloudy
2:15 PM 48.2 °F - 41.0 °F 76% 29.44 in 3.1 mi South 9.2 mph 27.6 mph N/A Rain , Thunderstorm Light Thunderstorms and Rain
2:45 PM 46.4 °F 41.9 °F 44.6 °F 93% 29.44 in 3.7 mi SSE 9.2 mph - N/A Rain Light Rain
3:15 PM 48.2 °F - 46.4 °F 93% 29.42 in 4.3 mi South 9.2 mph - N/A   Mostly Cloudy
3:45 PM 48.2 °F - 46.4 °F 93% 29.42 in 4.3 mi SSE 10.4 mph - N/A Rain Light Rain
4:00 PM 48 °F - 46 °F 89% 29.44 in 4 mi SSE 10.4 mph - - Rain Light Rain
4:15 PM 46.4 °F 43.5 °F 42.8 °F 87% 29.42 in 5.0 mi South 5.8 mph - N/A Rain Light Rain
4:45 PM 48.2 °F - 42.8 °F 82% 29.42 in 5.0 mi SSW 6.9 mph - N/A   Scattered Clouds
5:15 PM 48.2 °F - 42.8 °F 82% 29.42 in 5.0 mi SSW 9.2 mph 24.2 mph N/A Rain Light Rain
5:45 PM 44.6 °F - 41.0 °F 87% 29.42 in 5.0 mi Calm Calm - N/A   Mostly Cloudy
6:15 PM 44.6 °F 39.7 °F 41.0 °F 87% 29.42 in 5.0 mi SE 9.2 mph - N/A   Mostly Cloudy
6:45 PM 44.6 °F 38.8 °F 42.8 °F 93% 29.42 in 5.0 mi SE 11.5 mph - N/A Rain Light Rain
7:00 PM 45 °F - 42 °F 86% 29.45 in 5 mi SE 11.5 mph - - Rain Light Rain
7:15 PM 44.6 °F 39.7 °F 42.8 °F 93% 29.42 in 5.0 mi SSE 9.2 mph - N/A Rain Light Rain
7:45 PM 44.6 °F 41.4 °F 42.8 °F 93% 29.42 in 5.0 mi SSE 5.8 mph - N/A Rain Light Rain
8:15 PM 44.6 °F - 42.8 °F 93% 29.42 in 5.0 mi SW 2.3 mph - N/A Rain Light Rain
8:45 PM 44.6 °F 43.1 °F 42.8 °F 93% 29.42 in 5.0 mi South 3.5 mph - N/A Rain Light Rain
9:15 PM 44.6 °F 39.2 °F 42.8 °F 93% 29.42 in 3.7 mi SSE 10.4 mph - N/A Rain Light Rain
9:45 PM 44.6 °F 38.4 °F 42.8 °F 93% 29.42 in 5.0 mi SE 12.7 mph - N/A Rain Light Rain
10:00 PM 44 °F - 42 °F 90% 29.45 in 5 mi SE 12.7 mph - - Rain Light Rain
10:15 PM 42.8 °F 36.6 °F 41.0 °F 93% 29.42 in 5.0 mi East 11.5 mph - N/A   Scattered Clouds
10:45 PM 42.8 °F 36.6 °F 41.0 °F 93% 29.42 in 5.0 mi ESE 11.5 mph - N/A   Partly Cloudy
11:15 PM 42.8 °F 38.6 °F 41.0 °F 93% 29.42 in 5.0 mi SSE 6.9 mph - N/A   Scattered Clouds
11:45 PM 42.8 °F 37.5 °F 41.0 °F 93% 29.42 in 5.0 mi ESE 9.2 mph - N/A   Scattered Clouds